QPF
0.00 0.00 0.00 0.00 0.00 0.00 0.00 0.00 0.00 0.00 0.00 0.00 0.00 0.00 0.00 0.00 0.00 0.00 0.00 0.00 0.00 0.00 0.00 0.00 0.00 0.00 0.00 0.00 0.00 0.00 0.00 0.00 0.00 0.00 0.00 0.00 0.00 0.00 0.00 0.00 0.00 0.00 0.00 0.00
0.00 0.00 0.00 0.00 0.00 0.00 0.00 0.00 0.00 0.00 0.00 0.00 0.00 0.00 0.00 0.00 0.00 0.00 0.00 0.00 0.00 0.00 0.00 0.00 0.00 0.00 0.00 0.00 0.00 0.00 0.00 0.00 0.00 0.00 0.00 0.00 0.00 0.00 0.00 0.00 0.00 0.00 0.00 0.00
0.00 0.00 0.00 0.00 0.00 0.00 0.00 0.00 0.00 0.00 0.00 0.00 0.00 0.00 0.00 0.00 0.00 0.00 0.00 0.00 0.00 0.00 0.00 0.00 0.00 0.00 0.00 0.00 0.00 0.00 0.00 0.00 0.00 0.00 0.00 0.00 0.00 0.00 0.00 0.00 0.00 0.00 0.00 0.00
0.00 0.00 0.00 0.00 0.00 0.00 0.00 0.00 0.00 0.00 0.00 0.00 0.00 0.00 0.00 0.00 0.00 0.00 0.00 0.00 0.00 0.00 0.00 0.00 0.00 0.00 0.00 0.00 0.00 0.00 0.00 0.00 0.00 0.00 0.00 0.00 0.00 0.00 0.00 0.00 0.00 0.00 0.00 0.00
0.00 0.00 0.00 0.00 0.00 0.00 0.00 0.00 0.00 0.00 0.00 0.00 0.00 0.00 0.00 0.00 0.00 0.00 0.00 0.00 0.00 0.00 0.00 0.00 0.00 0.00 0.00 0.00 0.00 0.00 0.00 0.00 0.00 0.00 0.00 0.00 0.00 0.00 0.00 0.00 0.00 0.00 0.00 0.00
0.00 0.00 0.00 0.00 0.00 0.00 0.00 0.00 0.00 0.00 0.00 0.00 0.00 0.00 0.00 0.00 0.00 0.00 0.00 0.00 0.00 0.00 0.00 0.00 0.00 0.00 0.00 0.00 0.00 0.00 0.00 0.00 0.00 0.00 0.00 0.00 0.00 0.00 0.00 0.00 0.00 0.00 0.00 0.00
0.00 0.00 0.00 0.00 0.00 0.00 0.00 0.00 0.00 0.00 0.00 0.00 0.00 0.00 0.00 0.00 0.00 0.00 0.00 0.00 0.00 0.00 0.00 0.00 0.00 0.00 0.00 0.00 0.00 0.00 0.00 0.00 0.00 0.00 0.00 0.00 0.00 0.00 0.00 0.00 0.00 0.00 0.00 0.00
0.00 0.00 0.00 0.00 0.00 0.00 0.00 0.00 0.00 0.00 0.00 0.00 0.00 0.00 0.00 0.00 0.00 0.00 0.00 0.00 0.00 0.00 0.00 0.00 0.00 0.00 0.00 0.00 0.00 0.00 0.00 0.00 0.00 0.00 0.00 0.00 0.00 0.00 0.00 0.00 0.00 0.00 0.00 0.00
0.00 0.00 0.00 0.00 0.00 0.00 0.00 0.00 0.00 0.00 0.00 0.00 0.00 0.00 0.00 0.00 0.00 0.00 0.00 0.00 0.00 0.00 0.00 0.00 0.00 0.00 0.00 0.00 0.00 0.00 0.00 0.00 0.00 0.00 0.00 0.00 0.00 0.00 0.00 0.00 0.00 0.00 0.00 0.00
0.00 0.00 0.00 0.00 0.00 0.00 0.00 0.00 0.00 0.00 0.00 0.00 0.00 0.00 0.00 0.00 0.00 0.00 0.00 0.00 0.00 0.00 0.00 0.00 0.00 0.00 0.00 0.00 0.00 0.00 0.00 0.00 0.00 0.00 0.00 0.00 0.00 0.00 0.00 0.00 0.00 0.00 0.00 0.01
0.00 0.00 0.00 0.00 0.00 0.00 0.00 0.00 0.00 0.00 0.00 0.00 0.00 0.00 0.00 0.00 0.00 0.00 0.00 0.00 0.00 0.00 0.00 0.00 0.00 0.00 0.00 0.00 0.00 0.00 0.00 0.00 0.00 0.00 0.00 0.00 0.00 0.00 0.00 0.00 0.00 0.00 0.01 0.01
0.00 0.00 0.00 0.00 0.00 0.00 0.00 0.00 0.00 0.00 0.00 0.00 0.00 0.00 0.00 0.00 0.00 0.00 0.00 0.00 0.00 0.00 0.00 0.00 0.00 0.00 0.00 0.00 0.00 0.00 0.00 0.00 0.00 0.00 0.00 0.00 0.00 0.00 0.00 0.00 0.00 0.00 0.00 0.01
0.00 0.00 0.00 0.00 0.00 0.00 0.00 0.00 0.00 0.00 0.00 0.00 0.00 0.00 0.00 0.00 0.00 0.00 0.00 0.00 0.00 0.00 0.00 0.00 0.00 0.00 0.00 0.00 0.00 0.00 0.00 0.00 0.00 0.00 0.00 0.00 0.00 0.00 0.00 0.00 0.00 0.00 0.00 0.00
0.00 0.00 0.00 0.00 0.00 0.00 0.00 0.00 0.00 0.00 0.00 0.00 0.00 0.00 0.00 0.00 0.00 0.00 0.00 0.00 0.00 0.00 0.00 0.00 0.00 0.00 0.00 0.00 0.00 0.00 0.00 0.00 0.00 0.00 0.00 0.00 0.00 0.00 0.00 0.00 0.00 0.00 0.00 0.00
0.00 0.00 0.00 0.00 0.00 0.00 0.00 0.00 0.00 0.00 0.00 0.00 0.00 0.00 0.00 0.00 0.00 0.00 0.00 0.00 0.00 0.00 0.00 0.00 0.00 0.00 0.00 0.00 0.00 0.00 0.00 0.00 0.00 0.00 0.00 0.00 0.00 0.00 0.00 0.00 0.00 0.00 0.00 0.00
0.00 0.00 0.00 0.00 0.00 0.00 0.00 0.00 0.00 0.00 0.00 0.00 0.00 0.00 0.00 0.00 0.00 0.00 0.00 0.00 0.00 0.00 0.00 0.00 0.00 0.00 0.00 0.00 0.00 0.00 0.00 0.00 0.00 0.00 0.00 0.00 0.00 0.00 0.00 0.01 0.01 0.01 0.00 0.00
0.00 0.00 0.00 0.00 0.00 0.00 0.00 0.00 0.00 0.00 0.00 0.00 0.00 0.00 0.00 0.00 0.00 0.00 0.00 0.00 0.00 0.00 0.00 0.00 0.00 0.00 0.00 0.00 0.00 0.00 0.00 0.00 0.00 0.00 0.00 0.00 0.00 0.01 0.01 0.01 0.01 0.01 0.00 0.00
0.00 0.00 0.00 0.00 0.00 0.00 0.00 0.00 0.00 0.00 0.00 0.00 0.00 0.00 0.00 0.00 0.00 0.00 0.00 0.00 0.00 0.00 0.00 0.00 0.00 0.00 0.00 0.00 0.00 0.00 0.00 0.00 0.00 0.00 0.00 0.00 0.01 0.01 0.01 0.01 0.01 0.01 0.00 0.00
0.00 0.00 0.00 0.00 0.00 0.00 0.00 0.00 0.00 0.00 0.00 0.00 0.00 0.00 0.00 0.00 0.00 0.00 0.00 0.00 0.00 0.00 0.00 0.00 0.00 0.00 0.00 0.00 0.00 0.00 0.00 0.00 0.00 0.00 0.00 0.00 0.01 0.01 0.01 0.01 0.01 0.00 0.00 0.01
0.00 0.00 0.00 0.00 0.00 0.00 0.00 0.00 0.00 0.00 0.00 0.00 0.00 0.00 0.00 0.00 0.00 0.00 0.00 0.00 0.00 0.00 0.00 0.00 0.00 0.00 0.00 0.00 0.00 0.00 0.00 0.00 0.01 0.01 0.01 0.01 0.01 0.01 0.01 0.01 0.00 0.01 0.01 0.01
0.00 0.00 0.00 0.00 0.00 0.00 0.00 0.00 0.00 0.00 0.00 0.00 0.00 0.00 0.00 0.00 0.00 0.00 0.00 0.00 0.00 0.00 0.00 0.00 0.00 0.00 0.00 0.00 0.00 0.00 0.01 0.01 0.01 0.01 0.01 0.01 0.01 0.01 0.01 0.01 0.01 0.01 0.01 0.01
0.00 0.00 0.00 0.00 0.00 0.00 0.00 0.00 0.00 0.00 0.00 0.00 0.00 0.00 0.00 0.00 0.00 0.00 0.00 0.00 0.00 0.00 0.00 0.00 0.00 0.00 0.00 0.00 0.00 0.01 0.01 0.01 0.01 0.01 0.01 0.01 0.01 0.01 0.01 0.01 0.01 0.01 0.01 0.01
0.00 0.00 0.00 0.00 0.00 0.00 0.00 0.00 0.00 0.00 0.00 0.00 0.00 0.00 0.00 0.00 0.00 0.00 0.00 0.00 0.00 0.00 0.00 0.00 0.00 0.00 0.00 0.00 0.00 0.01 0.01 0.01 0.01 0.01 0.01 0.01 0.01 0.01 0.01 0.01 0.01 0.01 0.01 0.01
0.00 0.00 0.00 0.00 0.00 0.00 0.00 0.00 0.00 0.00 0.00 0.00 0.00 0.00 0.00 0.00 0.00 0.00 0.00 0.00 0.00 0.00 0.00 0.00 0.00 0.00 0.00 0.00 0.00 0.00 0.00 0.01 0.01 0.01 0.01 0.01 0.01 0.01 0.01 0.01 0.01 0.01 0.01 0.01
0.00 0.00 0.00 0.00 0.00 0.00 0.00 0.00 0.00 0.00 0.00 0.00 0.00 0.00 0.00 0.00 0.00 0.00 0.00 0.00 0.00 0.00 0.00 0.00 0.00 0.00 0.00 0.00 0.00 0.00 0.00 0.01 0.01 0.01 0.01 0.01 0.01 0.01 0.01 0.01 0.01 0.01 0.01 0.01
0.00 0.00 0.00 0.00 0.00 0.00 0.00 0.00 0.00 0.00 0.00 0.00 0.00 0.00 0.00 0.00 0.00 0.00 0.00 0.00 0.00 0.00 0.00 0.00 0.00 0.00 0.00 0.00 0.00 0.00 0.01 0.01 0.01 0.01 0.01 0.01 0.01 0.01 0.01 0.01 0.01 0.01 0.01 0.01
0.00 0.00 0.00 0.00 0.00 0.00 0.00 0.00 0.00 0.00 0.00 0.00 0.00 0.00 0.00 0.00 0.00 0.00 0.00 0.00 0.00 0.00 0.00 0.00 0.00 0.00 0.00 0.00 0.01 0.01 0.01 0.01 0.01 0.01 0.01 0.01 0.01 0.01 0.01 0.01 0.01 0.01 0.01 0.02
MSLP
1012.28 1012.66 1012.97 1013.19 1013.28 1013.22 1013.04 1012.74 1012.37 1011.98 1011.63 1011.38 1011.28 1011.34 1011.58 1011.98 1012.51 1013.13 1013.80 1014.49 1015.16 1015.78 1016.37 1016.90 1017.38 1017.82 1018.22 1018.58 1018.88 1019.11 1019.28 1019.36 1019.36 1019.29 1019.14 1018.93 1018.68 1018.38 1018.06 1017.70 1017.32 1016.91 1016.49 1016.05
1012.36 1012.58 1012.73 1012.78 1012.70 1012.52 1012.25 1011.92 1011.57 1011.25 1011.00 1010.88 1010.91 1011.10 1011.44 1011.92 1012.50 1013.15 1013.84 1014.54 1015.21 1015.85 1016.44 1016.99 1017.49 1017.94 1018.34 1018.68 1018.96 1019.15 1019.26 1019.28 1019.22 1019.08 1018.87 1018.60 1018.29 1017.94 1017.58 1017.18 1016.78 1016.35 1015.92 1015.49
1012.52 1012.58 1012.55 1012.42 1012.18 1011.87 1011.51 1011.14 1010.81 1010.55 1010.41 1010.41 1010.57 1010.89 1011.34 1011.91 1012.56 1013.26 1013.97 1014.68 1015.35 1015.99 1016.58 1017.11 1017.60 1018.03 1018.39 1018.69 1018.90 1019.04 1019.08 1019.03 1018.90 1018.70 1018.44 1018.13 1017.78 1017.41 1017.02 1016.62 1016.21 1015.80 1015.38 1014.96
1012.65 1012.56 1012.37 1012.07 1011.69 1011.27 1010.84 1010.46 1010.15 1009.96 1009.92 1010.05 1010.34 1010.78 1011.34 1012.01 1012.72 1013.47 1014.20 1014.92 1015.58 1016.19 1016.75 1017.25 1017.68 1018.05 1018.34 1018.56 1018.70 1018.75 1018.72 1018.61 1018.42 1018.18 1017.89 1017.56 1017.21 1016.84 1016.46 1016.08 1015.69 1015.29 1014.89 1014.49
1012.63 1012.42 1012.10 1011.68 1011.21 1010.73 1010.27 1009.90 1009.64 1009.54 1009.60 1009.85 1010.26 1010.82 1011.49 1012.23 1013.00 1013.78 1014.53 1015.23 1015.87 1016.44 1016.93 1017.36 1017.71 1017.98 1018.18 1018.30 1018.35 1018.31 1018.21 1018.04 1017.82 1017.56 1017.26 1016.95 1016.62 1016.29 1015.94 1015.59 1015.22 1014.84 1014.45 1014.06
1012.36 1012.08 1011.69 1011.23 1010.73 1010.24 1009.81 1009.49 1009.31 1009.30 1009.48 1009.84 1010.37 1011.02 1011.77 1012.57 1013.39 1014.18 1014.92 1015.58 1016.17 1016.67 1017.08 1017.41 1017.65 1017.82 1017.91 1017.92 1017.87 1017.76 1017.60 1017.39 1017.15 1016.90 1016.63 1016.35 1016.06 1015.77 1015.47 1015.14 1014.80 1014.43 1014.04 1013.63
1011.82 1011.53 1011.14 1010.70 1010.24 1009.81 1009.47 1009.24 1009.17 1009.28 1009.57 1010.03 1010.65 1011.38 1012.18 1013.00 1013.82 1014.60 1015.30 1015.92 1016.43 1016.84 1017.16 1017.38 1017.51 1017.56 1017.54 1017.46 1017.32 1017.14 1016.94 1016.71 1016.47 1016.23 1016.00 1015.76 1015.53 1015.28 1015.01 1014.72 1014.39 1014.02 1013.60 1013.15
1011.06 1010.81 1010.50 1010.14 1009.79 1009.48 1009.26 1009.17 1009.23 1009.46 1009.85 1010.39 1011.07 1011.83 1012.65 1013.47 1014.26 1014.99 1015.63 1016.17 1016.60 1016.92 1017.14 1017.25 1017.28 1017.22 1017.11 1016.94 1016.74 1016.51 1016.27 1016.03 1015.80 1015.59 1015.38 1015.19 1014.99 1014.78 1014.54 1014.26 1013.92 1013.53 1013.08 1012.58
1010.18 1010.03 1009.83 1009.61 1009.41 1009.26 1009.20 1009.26 1009.46 1009.79 1010.27 1010.87 1011.57 1012.34 1013.12 1013.90 1014.63 1015.29 1015.86 1016.32 1016.66 1016.89 1017.01 1017.03 1016.97 1016.84 1016.65 1016.41 1016.16 1015.89 1015.63 1015.38 1015.16 1014.96 1014.78 1014.61 1014.43 1014.23 1014.00 1013.71 1013.35 1012.94 1012.44 1011.90
1009.35 1009.31 1009.25 1009.19 1009.16 1009.19 1009.29 1009.50 1009.82 1010.25 1010.78 1011.41 1012.10 1012.83 1013.56 1014.26 1014.91 1015.48 1015.96 1016.33 1016.59 1016.74 1016.79 1016.74 1016.62 1016.42 1016.18 1015.90 1015.61 1015.32 1015.04 1014.78 1014.55 1014.35 1014.17 1013.99 1013.81 1013.60 1013.35 1013.04 1012.66 1012.22 1011.69 1011.10
1008.70 1008.77 1008.85 1008.95 1009.08 1009.27 1009.53 1009.86 1010.27 1010.76 1011.33 1011.94 1012.60 1013.26 1013.91 1014.52 1015.07 1015.55 1015.94 1016.22 1016.41 1016.50 1016.49 1016.40 1016.23 1016.01 1015.73 1015.43 1015.11 1014.80 1014.49 1014.22 1013.96 1013.74 1013.53 1013.33 1013.12 1012.88 1012.60 1012.27 1011.87 1011.40 1010.86 1010.26
1008.34 1008.50 1008.69 1008.92 1009.19 1009.50 1009.87 1010.30 1010.78 1011.30 1011.86 1012.45 1013.04 1013.62 1014.18 1014.69 1015.14 1015.51 1015.82 1016.03 1016.15 1016.19 1016.15 1016.03 1015.84 1015.60 1015.31 1014.99 1014.66 1014.32 1013.99 1013.67 1013.38 1013.11 1012.86 1012.61 1012.36 1012.09 1011.78 1011.42 1011.00 1010.53 1009.99 1009.41
1008.28 1008.50 1008.77 1009.09 1009.46 1009.86 1010.31 1010.79 1011.30 1011.82 1012.36 1012.90 1013.42 1013.92 1014.37 1014.78 1015.14 1015.42 1015.64 1015.79 1015.86 1015.86 1015.78 1015.64 1015.45 1015.19 1014.90 1014.57 1014.22 1013.85 1013.49 1013.14 1012.80 1012.48 1012.17 1011.87 1011.57 1011.26 1010.92 1010.54 1010.13 1009.67 1009.17 1008.62
1008.49 1008.75 1009.07 1009.44 1009.86 1010.31 1010.79 1011.30 1011.81 1012.32 1012.82 1013.30 1013.76 1014.17 1014.54 1014.85 1015.11 1015.31 1015.46 1015.54 1015.55 1015.51 1015.41 1015.25 1015.04 1014.78 1014.47 1014.13 1013.77 1013.38 1012.99 1012.60 1012.22 1011.84 1011.48 1011.13 1010.78 1010.44 1010.08 1009.70 1009.30 1008.87 1008.41 1007.91
1008.89 1009.17 1009.51 1009.90 1010.34 1010.81 1011.30 1011.80 1012.30 1012.79 1013.25 1013.68 1014.07 1014.41 1014.69 1014.93 1015.10 1015.22 1015.29 1015.30 1015.25 1015.16 1015.02 1014.83 1014.60 1014.32 1014.01 1013.66 1013.27 1012.87 1012.46 1012.03 1011.61 1011.19 1010.79 1010.40 1010.02 1009.65 1009.28 1008.91 1008.53 1008.13 1007.72 1007.28
1009.42 1009.70 1010.04 1010.43 1010.86 1011.33 1011.81 1012.30 1012.78 1013.23 1013.66 1014.04 1014.37 1014.64 1014.86 1015.01 1015.11 1015.14 1015.13 1015.06 1014.95 1014.79 1014.60 1014.37 1014.10 1013.80 1013.47 1013.11 1012.72 1012.30 1011.87 1011.43 1010.98 1010.54 1010.10 1009.68 1009.28 1008.89 1008.52 1008.15 1007.80 1007.43 1007.06 1006.67
1009.99 1010.27 1010.60 1010.99 1011.41 1011.85 1012.31 1012.78 1013.22 1013.65 1014.03 1014.37 1014.65 1014.87 1015.02 1015.10 1015.11 1015.06 1014.96 1014.80 1014.61 1014.38 1014.11 1013.83 1013.53 1013.20 1012.85 1012.48 1012.08 1011.67 1011.23 1010.78 1010.32 1009.87 1009.41 1008.97 1008.55 1008.15 1007.78 1007.42 1007.07 1006.74 1006.39 1006.04
1010.58 1010.86 1011.18 1011.55 1011.95 1012.37 1012.80 1013.23 1013.64 1014.03 1014.38 1014.67 1014.90 1015.06 1015.14 1015.14 1015.07 1014.93 1014.73 1014.48 1014.20 1013.88 1013.55 1013.21 1012.86 1012.50 1012.14 1011.76 1011.37 1010.96 1010.53 1010.09 1009.63 1009.17 1008.71 1008.26 1007.82 1007.41 1007.02 1006.66 1006.32 1005.99 1005.66 1005.32
1011.17 1011.46 1011.77 1012.12 1012.49 1012.87 1013.26 1013.65 1014.01 1014.35 1014.65 1014.89 1015.06 1015.15 1015.16 1015.09 1014.93 1014.70 1014.41 1014.06 1013.69 1013.29 1012.89 1012.50 1012.10 1011.72 1011.35 1010.97 1010.59 1010.20 1009.79 1009.35 1008.91 1008.44 1007.98 1007.51 1007.06 1006.63 1006.22 1005.84 1005.49 1005.16 1004.83 1004.50
1011.78 1012.06 1012.36 1012.68 1013.01 1013.34 1013.68 1014.00 1014.31 1014.58 1014.81 1014.99 1015.09 1015.10 1015.03 1014.88 1014.63 1014.31 1013.93 1013.51 1013.06 1012.59 1012.14 1011.70 1011.29 1010.89 1010.51 1010.15 1009.78 1009.41 1009.02 1008.60 1008.16 1007.70 1007.22 1006.74 1006.27 1005.81 1005.38 1004.98 1004.60 1004.26 1003.92 1003.60
1012.38 1012.66 1012.94 1013.22 1013.50 1013.77 1014.03 1014.27 1014.50 1014.69 1014.83 1014.92 1014.93 1014.87 1014.72 1014.48 1014.16 1013.76 1013.31 1012.82 1012.31 1011.81 1011.32 1010.86 1010.44 1010.04 1009.68 1009.33 1008.98 1008.62 1008.25 1007.84 1007.41 1006.94 1006.45 1005.95 1005.46 1004.97 1004.51 1004.08 1003.69 1003.32 1002.98 1002.66
1012.98 1013.24 1013.48 1013.71 1013.92 1014.11 1014.28 1014.42 1014.54 1014.63 1014.68 1014.67 1014.59 1014.43 1014.20 1013.89 1013.50 1013.06 1012.56 1012.03 1011.50 1010.97 1010.48 1010.02 1009.60 1009.22 1008.86 1008.53 1008.20 1007.86 1007.50 1007.10 1006.66 1006.19 1005.69 1005.17 1004.65 1004.14 1003.66 1003.21 1002.79 1002.42 1002.07 1001.75
1013.52 1013.75 1013.95 1014.11 1014.23 1014.33 1014.40 1014.43 1014.44 1014.42 1014.35 1014.24 1014.07 1013.83 1013.53 1013.16 1012.72 1012.24 1011.72 1011.19 1010.65 1010.14 1009.65 1009.21 1008.81 1008.44 1008.11 1007.80 1007.48 1007.15 1006.79 1006.39 1005.95 1005.46 1004.95 1004.42 1003.88 1003.36 1002.86 1002.39 1001.97 1001.58 1001.24 1000.92
1013.97 1014.15 1014.29 1014.38 1014.42 1014.42 1014.38 1014.30 1014.20 1014.06 1013.89 1013.68 1013.42 1013.11 1012.75 1012.34 1011.89 1011.39 1010.88 1010.35 1009.84 1009.34 1008.88 1008.46 1008.09 1007.74 1007.42 1007.11 1006.80 1006.47 1006.10 1005.70 1005.25 1004.76 1004.24 1003.70 1003.16 1002.63 1002.12 1001.66 1001.23 1000.85 1000.50 1000.18
1014.27 1014.41 1014.49 1014.50 1014.46 1014.36 1014.22 1014.05 1013.84 1013.61 1013.34 1013.05 1012.72 1012.36 1011.96 1011.53 1011.06 1010.58 1010.08 1009.58 1009.09 1008.63 1008.20 1007.80 1007.44 1007.10 1006.79 1006.48 1006.15 1005.81 1005.43 1005.01 1004.55 1004.06 1003.54 1003.00 1002.47 1001.94 1001.45 1000.99 1000.57 1000.19 999.84 999.52
1014.43 1014.52 1014.54 1014.49 1014.37 1014.19 1013.97 1013.71 1013.42 1013.11 1012.78 1012.42 1012.05 1011.65 1011.23 1010.78 1010.32 1009.85 1009.37 1008.90 1008.44 1008.01 1007.59 1007.21 1006.85 1006.51 1006.18 1005.84 1005.50 1005.13 1004.73 1004.30 1003.83 1003.33 1002.82 1002.29 1001.77 1001.27 1000.79 1000.34 999.93 999.55 999.19 998.85
1014.47 1014.51 1014.47 1014.36 1014.19 1013.95 1013.67 1013.35 1013.00 1012.63 1012.25 1011.85 1011.44 1011.02 1010.59 1010.15 1009.69 1009.23 1008.78 1008.32 1007.88 1007.45 1007.04 1006.64 1006.27 1005.90 1005.54 1005.17 1004.79 1004.39 1003.97 1003.51 1003.04 1002.54 1002.03 1001.52 1001.02 1000.53 1000.07 999.63 999.22 998.83 998.46 998.09
Thickness
5624 5628 5628 5626 5624 5622 5618 5619 5614 5625 5631 5639 5638 5635 5633 5629 5623 5616 5608 5601 5593 5585 5577 5570 5562 5556 5549 5543 5537 5532 5526 5521 5516 5512 5509 5504 5500 5497 5493 5489 5485 5480 5476 5472
5613 5620 5619 5616 5621 5621 5619 5620 5620 5622 5627 5641 5639 5635 5628 5622 5616 5607 5599 5592 5584 5576 5567 5559 5552 5545 5538 5532 5526 5520 5515 5509 5505 5501 5497 5493 5489 5485 5481 5477 5473 5468 5464 5459
5595 5608 5605 5598 5616 5618 5619 5624 5621 5615 5624 5631 5626 5624 5619 5614 5607 5599 5591 5582 5573 5564 5556 5549 5541 5534 5527 5521 5515 5509 5503 5499 5494 5490 5486 5482 5478 5474 5469 5465 5461 5456 5451 5445
5585 5590 5573 5609 5630 5629 5624 5625 5626 5624 5624 5622 5618 5613 5610 5606 5598 5588 5581 5571 5562 5553 5544 5537 5530 5523 5516 5509 5503 5498 5492 5488 5484 5480 5475 5471 5467 5463 5458 5453 5449 5443 5438 5431
5572 5573 5586 5610 5618 5618 5614 5614 5625 5620 5617 5609 5602 5596 5592 5592 5587 5578 5569 5560 5550 5541 5533 5525 5518 5511 5504 5498 5492 5487 5482 5478 5474 5470 5465 5461 5456 5451 5447 5441 5436 5430 5424 5418
5567 5564 5568 5602 5609 5614 5609 5598 5616 5614 5606 5595 5587 5573 5576 5577 5571 5563 5555 5546 5537 5529 5521 5513 5507 5501 5493 5487 5482 5477 5474 5470 5466 5460 5455 5450 5445 5440 5435 5429 5424 5418 5412 5404
5562 5560 5574 5600 5598 5599 5582 5590 5601 5601 5595 5585 5576 5571 5569 5564 5556 5548 5540 5532 5524 5516 5508 5501 5496 5489 5482 5477 5472 5469 5466 5461 5455 5450 5444 5439 5435 5429 5423 5417 5412 5405 5399 5393
5560 5555 5568 5588 5585 5583 5586 5590 5590 5587 5583 5575 5565 5559 5554 5548 5539 5532 5525 5518 5511 5502 5496 5490 5484 5478 5472 5467 5464 5460 5456 5450 5445 5439 5434 5429 5422 5417 5410 5403 5397 5391 5384 5379
5573 5575 5587 5586 5585 5584 5583 5580 5578 5573 5570 5562 5551 5544 5539 5532 5525 5518 5512 5504 5498 5490 5484 5478 5473 5467 5461 5458 5454 5449 5444 5439 5434 5429 5423 5417 5410 5404 5397 5389 5381 5375 5368 5364
5574 5578 5579 5578 5578 5575 5573 5570 5567 5563 5557 5549 5540 5532 5525 5518 5511 5505 5499 5492 5485 5478 5471 5466 5461 5457 5452 5448 5443 5438 5433 5428 5422 5416 5411 5405 5398 5390 5382 5374 5366 5360 5354 5350
5565 5571 5568 5568 5567 5565 5561 5558 5554 5549 5544 5538 5529 5521 5513 5506 5499 5492 5486 5479 5473 5465 5459 5455 5450 5446 5442 5437 5432 5426 5421 5416 5410 5404 5398 5393 5386 5378 5370 5363 5352 5347 5342 5336
5558 5565 5560 5560 5560 5556 5549 5544 5539 5534 5528 5524 5517 5509 5502 5494 5487 5480 5473 5466 5459 5453 5448 5444 5440 5436 5431 5426 5420 5415 5409 5404 5397 5391 5385 5378 5372 5369 5363 5353 5347 5339 5332 5326
5556 5556 5552 5550 5549 5545 5538 5533 5527 5521 5514 5508 5503 5496 5490 5481 5474 5466 5460 5453 5447 5442 5438 5434 5429 5425 5420 5415 5409 5403 5396 5390 5384 5377 5370 5364 5357 5352 5350 5348 5338 5330 5323 5317
5543 5541 5536 5535 5531 5529 5524 5519 5513 5507 5501 5495 5488 5482 5475 5467 5460 5453 5447 5442 5438 5433 5428 5423 5418 5414 5409 5404 5397 5390 5384 5378 5371 5363 5356 5349 5343 5337 5332 5329 5328 5325 5317 5309
5530 5529 5525 5522 5517 5513 5507 5502 5495 5490 5485 5479 5473 5467 5460 5453 5447 5441 5437 5432 5427 5422 5417 5412 5407 5403 5397 5391 5385 5378 5371 5364 5357 5350 5344 5337 5330 5324 5319 5315 5312 5311 5309 5304
5515 5512 5510 5506 5501 5496 5492 5487 5481 5476 5471 5465 5458 5452 5447 5441 5435 5430 5425 5421 5415 5410 5405 5400 5395 5391 5385 5379 5372 5366 5359 5353 5345 5338 5331 5325 5318 5312 5308 5304 5301 5298 5296 5294
5498 5496 5495 5491 5487 5483 5478 5473 5469 5463 5456 5450 5445 5439 5433 5428 5423 5419 5415 5410 5404 5399 5393 5387 5383 5379 5373 5366 5358 5352 5345 5339 5333 5325 5318 5312 5306 5301 5297 5293 5291 5288 5287 5284
5491 5489 5486 5481 5475 5469 5464 5460 5454 5448 5442 5438 5432 5426 5421 5416 5411 5407 5402 5398 5393 5388 5383 5377 5372 5367 5361 5353 5345 5338 5331 5325 5319 5312 5306 5301 5296 5292 5288 5284 5282 5279 5279 5278
5477 5473 5469 5466 5461 5455 5449 5444 5439 5434 5429 5424 5419 5414 5409 5404 5399 5394 5390 5384 5378 5375 5373 5367 5362 5355 5348 5340 5333 5325 5318 5312 5306 5301 5295 5291 5287 5283 5279 5276 5273 5271 5270 5270
5459 5456 5451 5447 5443 5438 5433 5429 5426 5421 5416 5411 5405 5400 5395 5391 5386 5381 5376 5371 5367 5362 5361 5355 5348 5341 5334 5327 5320 5312 5305 5299 5294 5289 5285 5281 5277 5275 5271 5268 5266 5264 5264 5263
5441 5438 5434 5431 5427 5424 5420 5416 5411 5407 5402 5397 5391 5386 5381 5378 5373 5367 5362 5361 5360 5352 5347 5343 5335 5327 5319 5313 5308 5300 5293 5287 5283 5278 5275 5271 5269 5266 5263 5261 5259 5258 5258 5257
5426 5423 5420 5417 5413 5408 5405 5401 5397 5392 5387 5382 5377 5372 5368 5364 5360 5355 5351 5346 5346 5341 5334 5327 5319 5312 5306 5301 5294 5287 5282 5277 5272 5268 5265 5262 5259 5257 5255 5253 5252 5252 5252 5251
5412 5408 5405 5401 5397 5393 5389 5385 5382 5378 5373 5369 5364 5359 5355 5352 5346 5341 5341 5337 5330 5325 5319 5312 5305 5299 5294 5287 5281 5275 5270 5266 5262 5259 5255 5253 5250 5248 5247 5246 5246 5246 5246 5246
5395 5391 5387 5384 5380 5376 5373 5371 5368 5365 5360 5356 5352 5346 5341 5338 5335 5330 5324 5323 5317 5311 5304 5298 5292 5286 5281 5275 5269 5264 5260 5256 5252 5249 5247 5245 5243 5241 5240 5240 5240 5241 5242 5243
5379 5375 5372 5368 5365 5362 5361 5359 5355 5351 5347 5344 5340 5335 5329 5323 5319 5317 5311 5305 5301 5295 5289 5284 5279 5273 5267 5262 5258 5254 5251 5247 5245 5242 5241 5238 5237 5236 5235 5235 5236 5237 5238 5240
5365 5362 5359 5357 5353 5351 5348 5345 5341 5338 5334 5332 5328 5323 5316 5310 5304 5299 5295 5290 5285 5280 5275 5270 5265 5260 5255 5251 5248 5245 5242 5240 5238 5235 5233 5232 5232 5231 5232 5232 5233 5234 5236 5238
5352 5349 5346 5344 5341 5338 5334 5331 5327 5323 5319 5314 5312 5308 5301 5295 5290 5284 5280 5276 5272 5267 5262 5257 5252 5248 5245 5242 5240 5237 5235 5234 5232 5231 5230 5229 5229 5229 5230 5230 5231 5232 5234 5236